Meteo Giornale » Osservazioni meteo Italia » Catania-Fontanarossa

ore: 14:20 - Osservazioni Meteo Catania-Fontanarossa
Lat. 37° 28' N Lon. 15° 3' E Alt. 11 metri s.l.m.

sereno Europe/Rome

18 °C

Sereno

Temp. 24 Ore

10 °C

21 °C

Est

20.3 Km/h

Dew point 8 °C

Umidità 51 %

Visibilità  10 Km

Il sole sorge alle ore 06:03

Il sole tramonta alle ore 19:50

Data e Ora Cielo e Fenomeni T °C DP °C Um. % Pres. hPa Vis. km Vento km/h
Oggi h: 14:20 sereno Sereno 18 8 51 1012 10 E 20.3
Oggi h: 13:50 sereno Sereno 18 9 55 1012 10 E 18.5
Oggi h: 13:20 sereno Sereno 19 9 52 1012 10 E 16.7
Oggi h: 12:50 sereno Sereno 19 8 48 1012 10 E 13
Oggi h: 12:20 sereno Sereno 19 7 45 1012 10 E 11.1
Oggi h: 11:50 sereno Sereno 19 10 55 1012 10 E 13
Oggi h: 11:20 sereno Sereno 18 9 55 1013 10 E 13
Oggi h: 10:50 sereno Sereno 17 9 59 1012 10 E 11.1
Oggi h: 10:20 sereno Sereno 18 9 55 1012 10 E 11.1
Oggi h: 09:50 sereno Sereno 18 8 51 1012 10 N 3.7
Oggi h: 09:20 sereno Sereno 17 7 51 1012 10 N 5.5
Oggi h: 08:50 sereno Sereno 15 7 58 1012 10 SO 9.3
Oggi h: 08:20 sereno Sereno 14 7 62 1012 10 S/SO 9.3
Oggi h: 07:50 poco_nuvoloso Poco Nuvoloso 12 7 71 1012 10 N 5.5
Oggi h: 07:20 poco_nuvoloso Poco Nuvoloso 11 7 76 1012 8 N 5.5
Oggi h: 06:50 poco_nuvoloso Poco Nuvoloso 10 6 76 1012 8 N 3.7
Oggi h: 06:20 poco_nuvoloso Poco Nuvoloso 12 7 71 1012 8 O 7.4
Oggi h: 05:50 poco_nuvoloso Poco Nuvoloso 10 6 76 1012 8 O 11.1
Oggi h: 04:50 poco_nuvoloso Poco Nuvoloso 10 6 76 1011 8 O/SO 9.3
Oggi h: 04:20 poco_nuvoloso Poco Nuvoloso 10 7 81 1011 8 SO 11.1
Oggi h: 03:50 poco_nuvoloso Poco Nuvoloso 10 7 81 1011 8 SO 9.3
Oggi h: 03:20 poco_nuvoloso Poco Nuvoloso 11 7 76 1011 8 SO 7.4
Oggi h: 02:50 poco_nuvoloso Poco Nuvoloso 11 7 76 1011 8 O/SO 11.1
Oggi h: 02:20 poco_nuvoloso Poco Nuvoloso 11 7 76 1011 8 O/SO 7.4
Oggi h: 01:50 poco_nuvoloso Poco Nuvoloso 12 6 66 1011 8 O 11.1
Oggi h: 01:20 poco_nuvoloso Poco Nuvoloso 12 7 71 1012 8 O 11.1
Oggi h: 00:50 poco_nuvoloso Poco Nuvoloso 12 7 71 1011 8 O 11.1
Oggi h: 00:20 poco_nuvoloso Poco Nuvoloso 13 8 71 1011 8 N 5.5
Ieri h: 23:50 poco_nuvoloso Poco Nuvoloso 14 8 67 1011 8 O/SO 7.4
Ieri h: 23:20 poco_nuvoloso Poco Nuvoloso 14 10 76 1011 8 N 5.5
Ieri h: 22:50 poco_nuvoloso Poco Nuvoloso 15 11 76 1011 8 S 7.4
Ieri h: 22:20 poco_nuvoloso Poco Nuvoloso 15 11 76 1010 8 N 5.5
Ieri h: 21:50 poco_nuvoloso Poco Nuvoloso 15 11 76 1010 8 O 7.4
Ieri h: 21:20 nuvoloso Nuvoloso 16 11 72 1010 8 O 9.3
Ieri h: 20:50 nuvoloso Nuvoloso 16 11 72 1009 8 O/SO 11.1
Ieri h: 20:20 poco_nuvoloso Poco Nuvoloso 16 11 72 1009 8 O 11.1
Ieri h: 19:50 poco_nuvoloso Poco Nuvoloso 18 10 59 1008 8 O/NO 7.4
Ieri h: 19:20 poco_nuvoloso Poco Nuvoloso 19 10 55 1008 8 E/NE 14.8
Ieri h: 18:50 poco_nuvoloso Poco Nuvoloso 19 10 55 1008 8 E/NE 16.7
Ieri h: 18:20 poco_nuvoloso Poco Nuvoloso 19 10 55 1007 8 E/NE 24
Ieri h: 17:50 poco_nuvoloso Poco Nuvoloso 19 10 55 1007 8 E/NE 25.9
Ieri h: 17:20 poco_nuvoloso Poco Nuvoloso 19 11 59 1006 8 E/NE 31.5
Ieri h: 16:50 nuvoloso Nuvoloso 20 11 56 1006 8 E/NE 31.5
Ieri h: 16:20 nuvoloso Nuvoloso 21 11 52 1006 8 E/NE 25.9
Ieri h: 15:50 nuvoloso Nuvoloso 21 11 52 1006 8 NE 29.6
Ieri h: 15:20 nuvoloso Nuvoloso 20 12 59 1006 8 E/NE 31.5
Ieri h: 14:50 nuvoloso Nuvoloso 21 12 56 1006 8 NE 25.9